�������l�o���
Date,Time,MP-1(��Sv/h),MP-2(��Sv/h),MP-3(��Sv/h),MP-4(��Sv/h),MP-5(��Sv/h),MP-6(��Sv/h),MP-7(��Sv/h),MP-8(��Sv/h),����,����(m/s),���J
2021/11/15,00:00,0.585,0.879,0.556,1.073,0.753,0.356,0.619,0.580,��,2.8,��
2021/11/15,00:10,0.585,0.878,0.558,1.074,0.752,0.357,0.616,0.581,��,2.6,��
2021/11/15,00:20,0.584,0.876,0.557,1.074,0.753,0.355,0.618,0.581,��,4.8,��
2021/11/15,00:30,0.584,0.876,0.558,1.073,0.752,0.357,0.617,0.582,���쐼,5.3,��
2021/11/15,00:40,0.585,0.876,0.556,1.074,0.750,0.358,0.619,0.580,���쐼,5.4,��
2021/11/15,00:50,0.585,0.877,0.557,1.073,0.753,0.357,0.618,0.581,��,4.4,��
2021/11/15,01:00,0.585,0.876,0.558,1.074,0.752,0.355,0.618,0.581,���쐼,4.3,��
2021/11/15,01:10,0.585,0.875,0.557,1.074,0.753,0.355,0.618,0.581,��,3.1,��
2021/11/15,01:20,0.585,0.876,0.559,1.073,0.752,0.355,0.618,0.580,��,1.7,��
2021/11/15,01:30,0.585,0.877,0.556,1.073,0.752,0.356,0.617,0.582,�k��,3.6,��
2021/11/15,01:40,0.582,0.878,0.557,1.074,0.753,0.355,0.617,0.578,�k��,4.4,��
2021/11/15,01:50,0.583,0.877,0.558,1.074,0.753,0.355,0.618,0.580,���k��,4.1,��
2021/11/15,02:00,0.585,0.875,0.557,1.073,0.751,0.355,0.617,0.583,���k��,4.0,��
2021/11/15,02:10,0.584,0.876,0.557,1.071,0.752,0.356,0.616,0.581,���k��,5.5,��
2021/11/15,02:20,0.586,0.875,0.558,1.073,0.750,0.356,0.618,0.580,���k��,5.6,��
2021/11/15,02:30,0.585,0.878,0.555,1.073,0.752,0.356,0.617,0.580,���k��,6.4,��
2021/11/15,02:40,0.584,0.877,0.558,1.075,0.752,0.354,0.617,0.580,���k��,6.8,��
2021/11/15,02:50,0.586,0.875,0.557,1.075,0.753,0.356,0.616,0.580,��,6.5,��
2021/11/15,03:00,0.585,0.876,0.558,1.076,0.750,0.356,0.618,0.582,��,6.4,��
2021/11/15,03:10,0.585,0.877,0.557,1.074,0.752,0.355,0.618,0.582,��,5.7,��
2021/11/15,03:20,0.586,0.876,0.558,1.076,0.752,0.356,0.617,0.580,��,6.9,��
2021/11/15,03:30,0.584,0.877,0.559,1.076,0.752,0.356,0.616,0.582,��,5.9,��
2021/11/15,03:40,0.585,0.877,0.558,1.075,0.751,0.357,0.618,0.581,��,5.2,��
2021/11/15,03:50,0.585,0.876,0.558,1.074,0.753,0.357,0.617,0.580,��,4.1,��
2021/11/15,04:00,0.585,0.876,0.556,1.075,0.753,0.356,0.618,0.581,���k��,3.9,��
2021/11/15,04:10,0.584,0.876,0.558,1.073,0.753,0.356,0.618,0.581,�k��,3.4,��
2021/11/15,04:20,0.583,0.876,0.558,1.076,0.751,0.356,0.619,0.582,�k��,3.5,��
2021/11/15,04:30,0.584,0.876,0.557,1.074,0.752,0.356,0.618,0.581,�k��,4.3,��
2021/11/15,04:40,0.585,0.877,0.557,1.076,0.751,0.356,0.618,0.579,�k��,5.4,��
2021/11/15,04:50,0.583,0.877,0.557,1.075,0.752,0.356,0.618,0.581,�k��,6.1,��
2021/11/15,05:00,0.585,0.877,0.558,1.074,0.752,0.356,0.617,0.581,���k��,5.8,��
2021/11/15,05:10,0.585,0.877,0.556,1.075,0.752,0.358,0.617,0.583,���k��,4.9,��
2021/11/15,05:20,0.585,0.875,0.556,1.075,0.753,0.356,0.618,0.582,���k��,4.7,��
2021/11/15,05:30,0.585,0.876,0.556,1.075,0.752,0.356,0.618,0.580,���k��,3.7,��
2021/11/15,05:40,0.585,0.876,0.559,1.075,0.751,0.356,0.619,0.580,�k��,2.0,��
2021/11/15,05:50,0.585,0.877,0.556,1.076,0.752,0.357,0.617,0.582,���k��,3.0,��
2021/11/15,06:00,0.586,0.877,0.558,1.075,0.751,0.354,0.618,0.581,���k��,3.5,��
2021/11/15,06:10,0.585,0.877,0.557,1.074,0.752,0.355,0.618,0.581,���k��,4.4,��
2021/11/15,06:20,0.583,0.874,0.557,1.075,0.753,0.355,0.618,0.581,���k��,4.6,��
2021/11/15,06:30,0.584,0.875,0.556,1.075,0.751,0.356,0.617,0.581,���k��,3.4,��
2021/11/15,06:40,0.585,0.878,0.556,1.073,0.751,0.356,0.619,0.582,���k��,4.3,��
2021/11/15,06:50,0.583,0.878,0.555,1.074,0.751,0.355,0.618,0.581,���k��,4.9,��
2021/11/15,07:00,0.585,0.877,0.557,1.074,0.753,0.356,0.618,0.582,�k��,4.1,��
2021/11/15,07:10,0.585,0.876,0.558,1.073,0.751,0.355,0.619,0.582,�k��,3.9,��
2021/11/15,07:20,0.584,0.876,0.556,1.075,0.750,0.357,0.619,0.579,���k��,4.0,��
2021/11/15,07:30,0.584,0.877,0.557,1.074,0.751,0.356,0.618,0.580,�k��,2.9,��
2021/11/15,07:40,0.585,0.875,0.556,1.076,0.753,0.355,0.619,0.581,���k��,0.9,��
2021/11/15,07:50,0.585,0.875,0.556,1.072,0.753,0.357,0.617,0.581,-,CALM,��
2021/11/15,08:00,0.586,0.875,0.558,1.072,0.751,0.357,0.618,0.581,-,CALM,��
2021/11/15,08:10,0.585,0.878,0.556,1.074,0.751,0.355,0.618,0.581,-,CALM,��
2021/11/15,08:20,0.586,0.874,0.557,1.074,0.751,0.356,0.618,0.582,�k�k��,1.9,��
2021/11/15,08:30,0.585,0.876,0.558,1.073,0.751,0.357,0.619,0.582,�k��,3.5,��
2021/11/15,08:40,0.586,0.873,0.557,1.075,0.750,0.354,0.618,0.583,���k��,2.0,��
2021/11/15,08:50,0.585,0.875,0.558,1.076,0.751,0.358,0.618,0.580,��,1.2,��
2021/11/15,09:00,0.586,0.874,0.559,1.075,0.752,0.356,0.616,0.581,���쐼,0.9,��
2021/11/15,09:10,0.588,0.873,0.557,1.074,0.752,0.358,0.617,0.582,�k��,0.8,��
2021/11/15,09:20,0.586,0.871,0.559,1.075,0.755,0.358,0.617,0.581,���k��,2.3,��
2021/11/15,09:30,0.583,0.875,0.560,1.075,0.754,0.356,0.617,0.583,���k��,3.3,��
2021/11/15,09:40,0.585,0.873,0.551,1.075,0.752,0.357,0.616,0.581,���k��,3.2,��
2021/11/15,09:50,0.583,0.873,0.559,1.073,0.752,0.357,0.616,0.582,��,3.0,��
2021/11/15,10:00,0.584,0.873,0.558,1.077,0.753,0.355,0.617,0.584,���k��,3.8,��
2021/11/15,10:10,0.583,0.872,0.558,1.075,0.749,0.355,0.616,0.581,��,5.0,��
2021/11/15,10:20,0.582,0.874,0.558,1.075,0.751,0.354,0.616,0.582,��,4.1,��
2021/11/15,10:30,0.582,0.875,0.558,1.076,0.751,0.355,0.618,0.582,��,4.8,��
2021/11/15,10:40,0.584,0.872,0.558,1.076,0.750,0.354,0.617,0.584,��,6.1,��
2021/11/15,10:50,0.584,0.872,0.558,1.074,0.751,0.355,0.618,0.583,��,6.8,��
2021/11/15,11:00,0.585,0.869,0.559,1.077,0.749,0.354,0.617,0.583,��,5.5,��
2021/11/15,11:10,0.585,0.872,0.559,1.079,0.744,0.355,0.618,0.581,��,6.3,��
2021/11/15,11:20,0.583,0.874,0.559,1.077,0.752,0.355,0.619,0.583,��,5.6,��
2021/11/15,11:30,0.584,0.874,0.559,1.077,0.752,0.354,0.618,0.581,���k��,6.2,��
2021/11/15,11:40,0.586,0.875,0.559,1.080,0.753,0.355,0.617,0.583,���k��,4.6,��
2021/11/15,11:50,0.585,0.875,0.558,1.078,0.752,0.354,0.619,0.582,���k��,7.0,��
2021/11/15,12:00,0.585,0.879,0.557,1.077,0.753,0.356,0.617,0.580,��,5.4,��
2021/11/15,12:10,0.585,0.879,0.558,1.077,0.753,0.356,0.618,0.580,��,8.2,��
2021/11/15,12:20,0.584,0.878,0.558,1.076,0.753,0.355,0.616,0.581,��,7.4,��
2021/11/15,12:30,0.587,0.878,0.557,1.078,0.754,0.357,0.618,0.580,��,8.9,��
2021/11/15,12:40,0.586,0.878,0.558,1.078,0.754,0.357,0.620,0.580,��,7.3,��
2021/11/15,12:50,0.586,0.877,0.557,1.077,0.752,0.356,0.618,0.580,��,5.2,��
2021/11/15,13:00,0.586,0.876,0.556,1.078,0.755,0.356,0.619,0.581,���k��,8.9,��
2021/11/15,13:10,0.585,0.878,0.555,1.079,0.755,0.356,0.618,0.580,���k��,9.6,��
2021/11/15,13:20,0.586,0.877,0.556,1.077,0.754,0.354,0.618,0.580,��,7.3,��
2021/11/15,13:30,0.586,0.876,0.557,1.077,0.754,0.356,0.616,0.580,���k��,9.1,��
2021/11/15,13:40,0.586,0.877,0.557,1.077,0.755,0.356,0.620,0.580,���k��,7.2,��
2021/11/15,13:50,0.586,0.876,0.559,1.078,0.753,0.356,0.618,0.581,��,5.3,��
2021/11/15,14:00,0.586,0.876,0.557,1.079,0.754,0.358,0.618,0.580,��,5.2,��
2021/11/15,14:10,0.586,0.876,0.557,1.079,0.754,0.356,0.618,0.581,��,5.3,��
2021/11/15,14:20,0.586,0.877,0.559,1.078,0.754,0.356,0.617,0.581,��,5.6,��
2021/11/15,14:30,0.585,0.876,0.558,1.079,0.754,0.356,0.617,0.580,��,5.9,��
2021/11/15,14:40,0.586,0.878,0.558,1.080,0.756,0.356,0.618,0.580,��,6.5,��
2021/11/15,14:50,0.585,0.879,0.558,1.080,0.754,0.357,0.617,0.580,��,6.3,��
2021/11/15,15:00,0.586,0.880,0.557,1.080,0.754,0.358,0.620,0.580,��,8.0,��
2021/11/15,15:10,0.585,0.879,0.558,1.080,0.756,0.357,0.618,0.582,��,6.3,��
2021/11/15,15:20,0.584,0.881,0.557,1.080,0.756,0.358,0.618,0.583,��,6.0,��
2021/11/15,15:30,0.585,0.881,0.556,1.077,0.753,0.357,0.618,0.581,��,7.7,��
2021/11/15,15:40,0.586,0.881,0.556,1.079,0.754,0.358,0.617,0.581,��,7.3,��
2021/11/15,15:50,0.586,0.879,0.557,1.079,0.754,0.356,0.618,0.581,���쐼,8.2,��
2021/11/15,16:00,0.586,0.877,0.558,1.080,0.753,0.358,0.618,0.580,��,9.1,��
2021/11/15,16:10,0.583,0.878,0.557,1.080,0.752,0.357,0.616,0.580,��,7.4,��
2021/11/15,16:20,0.584,0.879,0.557,1.081,0.754,0.358,0.616,0.580,��,7.4,��
2021/11/15,16:30,0.585,0.880,0.557,1.079,0.754,0.358,0.619,0.584,���쐼,8.0,��
2021/11/15,16:40,0.587,0.883,0.560,1.081,0.753,0.358,0.619,0.582,���쐼,9.6,��
2021/11/15,16:50,0.586,0.883,0.559,1.081,0.754,0.359,0.619,0.582,���쐼,10.5,��
2021/11/15,17:00,0.587,0.884,0.560,1.079,0.755,0.358,0.620,0.582,��,11.6,��
2021/11/15,17:10,0.588,0.881,0.559,1.081,0.758,0.360,0.618,0.584,���쐼,8.5,��
2021/11/15,17:20,0.588,0.882,0.558,1.083,0.757,0.358,0.619,0.582,��,8.1,��
2021/11/15,17:30,0.589,0.883,0.561,1.083,0.756,0.358,0.619,0.583,��,7.2,��
2021/11/15,17:40,0.587,0.880,0.560,1.080,0.757,0.357,0.619,0.583,��,6.3,��
2021/11/15,17:50,0.587,0.881,0.558,1.081,0.756,0.359,0.617,0.581,��,6.2,��
2021/11/15,18:00,0.586,0.880,0.559,1.080,0.757,0.359,0.619,0.584,���쐼,6.6,��
2021/11/15,18:10,0.586,0.880,0.559,1.080,0.757,0.358,0.618,0.584,��,4.5,��
2021/11/15,18:20,0.588,0.882,0.561,1.082,0.758,0.357,0.620,0.582,��,4.6,��
2021/11/15,18:30,0.586,0.882,0.558,1.082,0.757,0.358,0.620,0.583,��,4.2,��
2021/11/15,18:40,0.588,0.880,0.558,1.081,0.756,0.357,0.619,0.584,���k��,2.6,��
2021/11/15,18:50,0.587,0.882,0.559,1.080,0.755,0.357,0.618,0.583,���k��,1.7,��
2021/11/15,19:00,0.587,0.879,0.560,1.079,0.755,0.359,0.620,0.582,���k��,2.9,��
2021/11/15,19:10,0.586,0.880,0.559,1.082,0.757,0.358,0.619,0.581,��,5.1,��
2021/11/15,19:20,0.587,0.882,0.559,1.081,0.758,0.359,0.618,0.583,���k��,5.9,��
2021/11/15,19:30,0.586,0.881,0.559,1.080,0.758,0.359,0.618,0.583,��,5.8,��
2021/11/15,19:40,0.588,0.882,0.560,1.080,0.756,0.357,0.619,0.583,��,6.6,��
2021/11/15,19:50,0.586,0.883,0.560,1.081,0.757,0.358,0.620,0.583,��,6.9,��
2021/11/15,20:00,0.588,0.884,0.561,1.081,0.756,0.357,0.618,0.582,���k��,7.5,��
2021/11/15,20:10,0.585,0.883,0.558,1.080,0.759,0.357,0.617,0.584,���k��,7.7,��
2021/11/15,20:20,0.587,0.882,0.560,1.082,0.758,0.355,0.618,0.584,���k��,6.9,��
2021/11/15,20:30,0.588,0.881,0.561,1.083,0.756,0.356,0.617,0.582,�k��,7.9,��
2021/11/15,20:40,0.589,0.881,0.560,1.082,0.756,0.357,0.617,0.584,���k��,7.6,�L
2021/11/15,20:50,0.587,0.884,0.561,1.081,0.756,0.357,0.617,0.583,���k��,7.9,�L
2021/11/15,21:00,0.587,0.881,0.560,1.081,0.758,0.358,0.618,0.583,���k��,6.8,�L
2021/11/15,21:10,0.587,0.882,0.560,1.082,0.756,0.357,0.618,0.582,���k��,7.0,��
2021/11/15,21:20,0.589,0.881,0.560,1.083,0.757,0.358,0.618,0.581,���k��,6.9,��
2021/11/15,21:30,0.588,0.881,0.559,1.080,0.756,0.357,0.618,0.582,���k��,7.0,��
2021/11/15,21:40,0.589,0.880,0.562,1.081,0.757,0.358,0.618,0.581,���k��,5.7,��
2021/11/15,21:50,0.586,0.882,0.560,1.080,0.759,0.356,0.618,0.583,���k��,6.8,��
2021/11/15,22:00,0.588,0.883,0.560,1.082,0.757,0.356,0.620,0.583,���k��,7.5,��
2021/11/15,22:10,0.586,0.883,0.560,1.083,0.755,0.358,0.618,0.582,���k��,7.6,��
2021/11/15,22:20,0.587,0.881,0.561,1.082,0.758,0.356,0.618,0.583,���k��,8.0,��
2021/11/15,22:30,0.587,0.880,0.560,1.081,0.758,0.358,0.618,0.582,���k��,8.8,��
2021/11/15,22:40,0.587,0.881,0.559,1.081,0.757,0.356,0.619,0.582,���k��,7.0,��
2021/11/15,22:50,0.587,0.880,0.560,1.081,0.757,0.356,0.619,0.583,���k��,5.5,��
2021/11/15,23:00,0.586,0.883,0.558,1.081,0.756,0.356,0.619,0.583,���k��,5.5,��
2021/11/15,23:10,0.586,0.883,0.558,1.084,0.756,0.358,0.619,0.584,���k��,4.4,��
2021/11/15,23:20,0.587,0.882,0.559,1.083,0.756,0.357,0.621,0.582,�k��,4.3,��
2021/11/15,23:30,0.587,0.881,0.560,1.080,0.756,0.357,0.618,0.581,�k��,5.0,��
2021/11/15,23:40,0.588,0.881,0.559,1.083,0.757,0.357,0.618,0.583,�k��,6.0,��
2021/11/15,23:50,0.587,0.882,0.559,1.084,0.758,0.358,0.620,0.583,�k��,5.9,��
